Wetterdaten: Sonntag, 17.01.2016
Datum Zeit Auen-Temp. Temp gefhlt Luftfeuchte Luftdruck Regen Wind Richtung Richtung Taupunkt Windben
17.01.2016 00:00 -3,9 C -4,8 C 83 % 1017,4 hPa 0,0 mm 18,1 km/h (3 Bft) W-NW 292 -6,4 C 10,9 km/h (2 Bft)
17.01.2016 00:05 -4,0 C -4,9 C 82 % 1017,4 hPa 0,0 mm 16,1 km/h (3 Bft) W 270 -6,6 C 11,9 km/h (2 Bft)
17.01.2016 00:10 -4,0 C -4,8 C 82 % 1017,4 hPa 0,0 mm 13,7 km/h (3 Bft) W-SW 247 -6,6 C 15,3 km/h (3 Bft)
17.01.2016 00:15 -4,0 C -4,7 C 82 % 1017,4 hPa 0,0 mm 12,4 km/h (3 Bft) O-SO 112 -6,6 C 9,1 km/h (2 Bft)
17.01.2016 00:20 -4,0 C -4,7 C 82 % 1017,5 hPa 0,0 mm 12,4 km/h (3 Bft) W-SW 247 -6,6 C 19,9 km/h (4 Bft)
17.01.2016 00:25 -4,0 C -4,8 C 82 % 1017,5 hPa 0,0 mm 12,9 km/h (3 Bft) W 270 -6,6 C 16,1 km/h (3 Bft)
17.01.2016 00:30 -4,1 C -5,2 C 82 % 1017,5 hPa 0,0 mm 12,7 km/h (3 Bft) NW 315 -6,7 C 20,2 km/h (4 Bft)
17.01.2016 00:35 -4,1 C -5,2 C 82 % 1017,5 hPa 0,0 mm 12,9 km/h (3 Bft) W 270 -6,7 C 23,3 km/h (4 Bft)
17.01.2016 00:40 -4,1 C -5,2 C 81 % 1017,5 hPa 0,0 mm 12,9 km/h (3 Bft) W-SW 247 -6,9 C 11,7 km/h (2 Bft)
17.01.2016 00:45 -4,3 C -5,3 C 81 % 1017,5 hPa 0,0 mm 11,9 km/h (2 Bft) W 270 -7,1 C 7,0 km/h (2 Bft)
17.01.2016 00:50 -4,3 C -5,2 C 81 % 1017,5 hPa 0,0 mm 11,4 km/h (2 Bft) W 270 -7,1 C 10,6 km/h (2 Bft)
17.01.2016 00:55 -4,3 C -5,3 C 81 % 1017,5 hPa 0,0 mm 10,9 km/h (2 Bft) NW 315 -7,1 C 14,0 km/h (3 Bft)
17.01.2016 01:00 -4,4 C -5,3 C 81 % 1017,5 hPa 0,0 mm 11,7 km/h (2 Bft) W 270 -7,2 C 21,8 km/h (4 Bft)
17.01.2016 01:05 -4,4 C -5,0 C 80 % 1017,5 hPa 0,0 mm 12,9 km/h (3 Bft) W-NW 292 -7,3 C 28,0 km/h (4 Bft)
17.01.2016 01:10 -4,4 C -5,1 C 80 % 1017,5 hPa 0,0 mm 13,5 km/h (3 Bft) W-SW 247 -7,3 C 19,2 km/h (3 Bft)
17.01.2016 01:15 -4,4 C -5,6 C 80 % 1017,5 hPa 0,0 mm 13,5 km/h (3 Bft) W-NW 292 -7,3 C 28,0 km/h (4 Bft)
17.01.2016 01:20 -4,4 C -5,2 C 80 % 1017,2 hPa 0,0 mm 12,7 km/h (3 Bft) W 270 -7,3 C 20,5 km/h (4 Bft)
17.01.2016 01:25 -4,4 C -5,4 C 80 % 1017,2 hPa 0,0 mm 11,1 km/h (2 Bft) W-SW 247 -7,3 C 12,2 km/h (2 Bft)
17.01.2016 01:30 -4,4 C -5,5 C 80 % 1017,2 hPa 0,0 mm 11,9 km/h (2 Bft) W 270 -7,3 C 28,0 km/h (4 Bft)
17.01.2016 01:35 -4,4 C -5,4 C 79 % 1017,2 hPa 0,0 mm 11,4 km/h (2 Bft) W 270 -7,5 C 9,6 km/h (2 Bft)
17.01.2016 01:40 -4,4 C -5,6 C 79 % 1017,6 hPa 0,0 mm 11,9 km/h (2 Bft) W-SW 247 -7,5 C 24,9 km/h (4 Bft)
17.01.2016 01:45 -4,5 C -5,7 C 79 % 1017,6 hPa 0,0 mm 12,2 km/h (2 Bft) W 270 -7,6 C 22,3 km/h (4 Bft)
17.01.2016 01:50 -4,5 C -5,3 C 79 % 1017,6 hPa 0,0 mm 12,9 km/h (3 Bft) W 270 -7,6 C 10,6 km/h (2 Bft)
17.01.2016 01:55 -4,5 C -5,7 C 79 % 1017,6 hPa 0,0 mm 12,9 km/h (3 Bft) W 270 -7,6 C 33,9 km/h (5 Bft)
17.01.2016 02:00 -4,5 C -5,6 C 79 % 1017,8 hPa 0,0 mm 11,9 km/h (2 Bft) S 180 -7,6 C 15,0 km/h (3 Bft)
17.01.2016 02:05 -4,5 C -5,5 C 79 % 1017,8 hPa 0,0 mm 10,6 km/h (2 Bft) W-SW 247 -7,6 C 9,3 km/h (2 Bft)
17.01.2016 02:10 -4,5 C -5,5 C 79 % 1017,8 hPa 0,0 mm 10,4 km/h (2 Bft) W 270 -7,6 C 10,4 km/h (2 Bft)
17.01.2016 02:15 -4,5 C -5,6 C 79 % 1017,8 hPa 0,0 mm 11,7 km/h (2 Bft) W-SW 247 -7,6 C 15,3 km/h (3 Bft)
17.01.2016 02:20 -4,4 C -5,2 C 79 % 1017,8 hPa 0,0 mm 12,4 km/h (3 Bft) W-SW 247 -7,5 C 16,1 km/h (3 Bft)
17.01.2016 02:25 -4,4 C -5,5 C 79 % 1017,8 hPa 0,0 mm 11,4 km/h (2 Bft) W-SW 247 -7,5 C 5,4 km/h (1 Bft)
17.01.2016 02:30 -4,4 C -5,5 C 79 % 1017,8 hPa 0,0 mm 10,1 km/h (2 Bft) W-SW 247 -7,5 C 9,8 km/h (2 Bft)
17.01.2016 02:35 -4,5 C -5,5 C 78 % 1017,8 hPa 0,0 mm 9,6 km/h (2 Bft) W-SW 247 -7,7 C 16,1 km/h (3 Bft)
17.01.2016 02:40 -4,5 C -5,7 C 78 % 1018,1 hPa 0,0 mm 10,6 km/h (2 Bft) W 270 -7,7 C 18,9 km/h (3 Bft)
17.01.2016 02:45 -4,5 C -5,7 C 78 % 1018,1 hPa 0,0 mm 10,9 km/h (2 Bft) W-SW 247 -7,7 C 12,9 km/h (3 Bft)
17.01.2016 02:50 -4,5 C -5,5 C 78 % 1018,1 hPa 0,0 mm 9,8 km/h (2 Bft) W 270 -7,7 C 9,6 km/h (2 Bft)
17.01.2016 02:55 -4,5 C -5,4 C 78 % 1018,1 hPa 0,0 mm 8,8 km/h (2 Bft) W 270 -7,7 C 11,9 km/h (2 Bft)
17.01.2016 03:00 -4,5 C -5,6 C 78 % 1018,2 hPa 0,0 mm 10,4 km/h (2 Bft) NW 315 -7,7 C 18,4 km/h (3 Bft)
17.01.2016 03:05 -4,5 C -5,7 C 78 % 1018,2 hPa 0,0 mm 10,4 km/h (2 Bft) W 270 -7,7 C 16,6 km/h (3 Bft)
17.01.2016 03:10 -4,5 C -5,6 C 78 % 1018,2 hPa 0,0 mm 9,8 km/h (2 Bft) W 270 -7,7 C 8,3 km/h (2 Bft)
17.01.2016 03:15 -4,5 C -5,5 C 78 % 1018,2 hPa 0,0 mm 8,8 km/h (2 Bft) W 270 -7,7 C 9,8 km/h (2 Bft)
17.01.2016 03:20 -4,6 C -5,3 C 78 % 1018,1 hPa 0,0 mm 6,7 km/h (2 Bft) W-NW 292 -7,8 C 4,1 km/h (1 Bft)
17.01.2016 03:25 -4,6 C -5,3 C 78 % 1018,1 hPa 0,0 mm 6,5 km/h (2 Bft) W-SW 247 -7,8 C 10,1 km/h (2 Bft)
17.01.2016 03:30 -4,6 C -5,4 C 78 % 1018,1 hPa 0,0 mm 7,8 km/h (2 Bft) W 270 -7,8 C 11,1 km/h (2 Bft)
17.01.2016 03:35 -4,6 C -5,4 C 78 % 1018,1 hPa 0,0 mm 8,3 km/h (2 Bft) W 270 -7,8 C 14,5 km/h (3 Bft)
17.01.2016 03:40 -4,6 C -5,4 C 79 % 1018,0 hPa 0,0 mm 7,3 km/h (2 Bft) W 270 -7,7 C 7,3 km/h (2 Bft)
17.01.2016 03:45 -4,6 C -5,5 C 79 % 1018,0 hPa 0,0 mm 7,5 km/h (2 Bft) W 270 -7,7 C 5,4 km/h (1 Bft)
17.01.2016 03:50 -4,6 C -5,4 C 79 % 1018,0 hPa 0,0 mm 6,7 km/h (2 Bft) W-NW 292 -7,7 C 7,5 km/h (2 Bft)
17.01.2016 03:55 -4,6 C -5,4 C 78 % 1018,0 hPa 0,0 mm 7,8 km/h (2 Bft) O-SO 112 -7,8 C 7,8 km/h (2 Bft)
17.01.2016 04:00 -4,6 C -5,5 C 79 % 1017,7 hPa 0,0 mm 8,3 km/h (2 Bft) W-SW 247 -7,7 C 9,3 km/h (2 Bft)
17.01.2016 04:05 -4,6 C -5,6 C 79 % 1017,7 hPa 0,0 mm 8,8 km/h (2 Bft) W-SW 247 -7,7 C 14,8 km/h (3 Bft)
17.01.2016 04:10 -4,6 C -5,7 C 79 % 1017,7 hPa 0,0 mm 9,3 km/h (2 Bft) W 270 -7,7 C 7,5 km/h (2 Bft)
17.01.2016 04:15 -4,7 C -5,7 C 79 % 1017,7 hPa 0,0 mm 9,1 km/h (2 Bft) W-NW 292 -7,8 C 17,6 km/h (3 Bft)
17.01.2016 04:20 -4,7 C -5,7 C 79 % 1017,6 hPa 0,0 mm 8,3 km/h (2 Bft) W-NW 292 -7,8 C 9,1 km/h (2 Bft)
17.01.2016 04:25 -4,7 C -5,8 C 79 % 1017,6 hPa 0,0 mm 9,1 km/h (2 Bft) W 270 -7,8 C 9,6 km/h (2 Bft)
17.01.2016 04:30 -4,7 C -5,8 C 79 % 1017,6 hPa 0,0 mm 9,6 km/h (2 Bft) SW 225 -7,8 C 5,2 km/h (1 Bft)
17.01.2016 04:35 -4,7 C -5,8 C 79 % 1017,6 hPa 0,0 mm 9,3 km/h (2 Bft) W-SW 247 -7,8 C 23,3 km/h (4 Bft)
17.01.2016 04:40 -4,8 C -5,7 C 78 % 1017,5 hPa 0,0 mm 8,8 km/h (2 Bft) W-NW 292 -8,0 C 17,6 km/h (3 Bft)
17.01.2016 04:45 -4,8 C -5,7 C 78 % 1017,5 hPa 0,0 mm 8,5 km/h (2 Bft) W-NW 292 -8,0 C 12,7 km/h (3 Bft)
17.01.2016 04:50 -4,8 C -5,7 C 78 % 1017,5 hPa 0,0 mm 8,3 km/h (2 Bft) W 270 -8,0 C 9,3 km/h (2 Bft)
17.01.2016 04:55 -4,8 C -5,5 C 78 % 1017,5 hPa 0,0 mm 7,3 km/h (2 Bft) SW 225 -8,0 C 8,0 km/h (2 Bft)
17.01.2016 05:00 -4,8 C -5,4 C 78 % 1017,5 hPa 0,0 mm 6,5 km/h (2 Bft) W-SW 247 -8,0 C 7,0 km/h (2 Bft)
17.01.2016 05:05 -4,8 C -5,6 C 78 % 1017,5 hPa 0,0 mm 7,8 km/h (2 Bft) NW 315 -8,0 C 8,3 km/h (2 Bft)
17.01.2016 05:10 -4,8 C -5,7 C 78 % 1017,5 hPa 0,0 mm 8,8 km/h (2 Bft) W 270 -8,0 C 11,7 km/h (2 Bft)
17.01.2016 05:15 -4,8 C -5,7 C 78 % 1017,5 hPa 0,0 mm 8,8 km/h (2 Bft) W 270 -8,0 C 8,5 km/h (2 Bft)
17.01.2016 05:20 -4,8 C -5,6 C 78 % 1017,3 hPa 0,0 mm 8,0 km/h (2 Bft) W-NW 292 -8,0 C 17,3 km/h (3 Bft)
17.01.2016 05:25 -4,8 C -5,5 C 78 % 1017,3 hPa 0,0 mm 7,5 km/h (2 Bft) W-SW 247 -8,0 C 7,3 km/h (2 Bft)
17.01.2016 05:30 -4,8 C -5,7 C 78 % 1017,3 hPa 0,0 mm 8,5 km/h (2 Bft) W-SW 247 -8,0 C 8,0 km/h (2 Bft)
17.01.2016 05:35 -4,8 C -5,7 C 78 % 1017,3 hPa 0,0 mm 8,8 km/h (2 Bft) W-SW 247 -8,0 C 5,7 km/h (1 Bft)
17.01.2016 05:40 -4,8 C -5,7 C 78 % 1017,2 hPa 0,0 mm 9,1 km/h (2 Bft) N-NW 337 -8,0 C 13,5 km/h (3 Bft)
17.01.2016 05:41 -4,8 C -5,6 C 78 % 1017,2 hPa 0,0 mm 7,8 km/h (2 Bft) O 90 -8,0 C 16,1 km/h (3 Bft)
17.01.2016 05:42 -4,8 C -5,6 C 78 % 1017,2 hPa 0,0 mm 7,8 km/h (2 Bft) O 90 -8,0 C 16,1 km/h (3 Bft)
17.01.2016 05:45 -4,8 C -5,6 C 78 % 1017,2 hPa 0,0 mm 7,8 km/h (2 Bft) O 90 -8,0 C 16,1 km/h (3 Bft)
17.01.2016 05:50 -4,8 C -5,6 C 78 % 1017,2 hPa 0,0 mm 7,5 km/h (2 Bft) W-SW 247 -8,0 C 4,4 km/h (1 Bft)
17.01.2016 05:55 -4,9 C -5,7 C 79 % 1017,2 hPa 0,0 mm 6,7 km/h (2 Bft) W 270 -8,0 C 7,5 km/h (2 Bft)
17.01.2016 06:00 -5,0 C -5,7 C 79 % 1016,8 hPa 0,0 mm 6,0 km/h (2 Bft) W-SW 247 -8,1 C 7,8 km/h (2 Bft)
17.01.2016 06:05 -4,9 C -5,7 C 79 % 1016,8 hPa 0,0 mm 6,7 km/h (2 Bft) W-SW 247 -8,0 C 8,5 km/h (2 Bft)
17.01.2016 06:10 -4,9 C -5,8 C 80 % 1016,8 hPa 0,0 mm 7,3 km/h (2 Bft) W-NW 292 -7,8 C 12,9 km/h (3 Bft)
17.01.2016 06:15 -4,9 C -5,9 C 78 % 1016,8 hPa 0,0 mm 8,5 km/h (2 Bft) W-SW 247 -8,1 C 8,3 km/h (2 Bft)
17.01.2016 06:20 -4,8 C -5,8 C 80 % 1016,8 hPa 0,0 mm 8,3 km/h (2 Bft) W 270 -7,7 C 15,0 km/h (3 Bft)
17.01.2016 06:25 -4,8 C -5,6 C 79 % 1016,8 hPa 0,0 mm 7,5 km/h (2 Bft) W 270 -7,9 C 6,0 km/h (2 Bft)
17.01.2016 06:30 -4,8 C -5,7 C 79 % 1016,8 hPa 0,0 mm 8,5 km/h (2 Bft) W-SW 247 -7,9 C 17,3 km/h (3 Bft)
17.01.2016 06:35 -4,8 C -5,8 C 80 % 1016,8 hPa 0,0 mm 8,3 km/h (2 Bft) W-SW 247 -7,7 C 7,8 km/h (2 Bft)
17.01.2016 06:40 -4,8 C -5,7 C 80 % 1016,8 hPa 0,0 mm 8,0 km/h (2 Bft) W-SW 247 -7,7 C 10,1 km/h (2 Bft)
17.01.2016 06:45 -4,9 C -5,8 C 79 % 1016,8 hPa 0,0 mm 8,0 km/h (2 Bft) W-SW 247 -8,0 C 9,3 km/h (2 Bft)
17.01.2016 06:50 -4,9 C -5,9 C 79 % 1016,8 hPa 0,0 mm 8,5 km/h (2 Bft) SW 225 -8,0 C 12,4 km/h (3 Bft)
17.01.2016 06:55 -4,9 C -5,8 C 79 % 1016,8 hPa 0,0 mm 7,8 km/h (2 Bft) W 270 -8,0 C 12,9 km/h (3 Bft)
17.01.2016 07:00 -4,8 C -5,8 C 79 % 1016,6 hPa 0,0 mm 8,0 km/h (2 Bft) S 180 -7,9 C 16,1 km/h (3 Bft)
17.01.2016 07:05 -4,9 C -5,9 C 79 % 1016,6 hPa 0,0 mm 8,3 km/h (2 Bft) W-SW 247 -8,0 C 5,7 km/h (1 Bft)
17.01.2016 07:10 -5,0 C -5,9 C 79 % 1016,6 hPa 0,0 mm 7,3 km/h (2 Bft) W-NW 292 -8,1 C 8,8 km/h (2 Bft)
17.01.2016 07:15 -5,0 C -5,9 C 79 % 1016,6 hPa 0,0 mm 7,0 km/h (2 Bft) W-SW 247 -8,1 C 8,3 km/h (2 Bft)
17.01.2016 07:20 -5,0 C -5,9 C 79 % 1016,6 hPa 0,0 mm 7,0 km/h (2 Bft) NW 315 -8,1 C 16,3 km/h (3 Bft)
17.01.2016 07:25 -5,0 C -6,0 C 79 % 1016,6 hPa 0,0 mm 7,8 km/h (2 Bft) W-SW 247 -8,1 C 11,9 km/h (2 Bft)
17.01.2016 07:30 -4,9 C -5,8 C 79 % 1016,6 hPa 0,0 mm 7,8 km/h (2 Bft) W-NW 292 -8,0 C 11,9 km/h (2 Bft)
17.01.2016 07:35 -4,9 C -5,8 C 80 % 1016,6 hPa 0,0 mm 7,3 km/h (2 Bft) W-SW 247 -7,8 C 16,6 km/h (3 Bft)
17.01.2016 07:40 -4,9 C -5,7 C 80 % 1016,6 hPa 0,0 mm 7,3 km/h (2 Bft) W 270 -7,8 C 6,7 km/h (2 Bft)
17.01.2016 07:45 -4,8 C -5,7 C 78 % 1016,6 hPa 0,0 mm 8,0 km/h (2 Bft) NW 315 -8,0 C 10,4 km/h (2 Bft)
17.01.2016 07:50 -4,8 C -5,7 C 78 % 1016,6 hPa 0,0 mm 8,3 km/h (2 Bft) W-SW 247 -8,0 C 7,5 km/h (2 Bft)
17.01.2016 07:55 -4,8 C -5,5 C 78 % 1016,6 hPa 0,0 mm 7,0 km/h (2 Bft) NW 315 -8,0 C 6,7 km/h (2 Bft)
17.01.2016 08:00 -4,8 C -5,3 C 80 % 1016,7 hPa 0,0 mm 4,9 km/h (1 Bft) W-SW 247 -7,7 C 0,0 km/h (0 Bft)
17.01.2016 08:05 -4,9 C -5,0 C 79 % 1016,7 hPa 0,0 mm 3,1 km/h (1 Bft) W-SW 247 -8,0 C 5,2 km/h (1 Bft)
17.01.2016 08:10 -4,9 C -5,1 C 80 % 1016,7 hPa 0,0 mm 2,3 km/h (1 Bft) S 180 -7,8 C 5,2 km/h (1 Bft)
17.01.2016 08:15 -4,9 C -5,1 C 80 % 1016,7 hPa 0,0 mm 2,6 km/h (1 Bft) N-NW 337 -7,8 C 4,7 km/h (1 Bft)
17.01.2016 08:20 -5,0 C -5,1 C 79 % 1016,5 hPa 0,0 mm 3,1 km/h (1 Bft) SW 225 -8,1 C 0,0 km/h (0 Bft)
17.01.2016 08:25 -4,9 C -5,0 C 79 % 1016,5 hPa 0,0 mm 3,1 km/h (1 Bft) S-SW 202 -8,0 C 5,2 km/h (1 Bft)
17.01.2016 08:30 -4,9 C -4,9 C 79 % 1016,5 hPa 0,0 mm 2,8 km/h (1 Bft) W 270 -8,0 C 2,6 km/h (1 Bft)
17.01.2016 08:35 -4,8 C -5,0 C 79 % 1016,5 hPa 0,0 mm 4,9 km/h (1 Bft) S-SO 157 -7,9 C 6,0 km/h (2 Bft)
17.01.2016 08:40 -4,8 C -5,1 C 79 % 1016,3 hPa 0,0 mm 6,2 km/h (2 Bft) NW 315 -7,9 C 5,4 km/h (1 Bft)
17.01.2016 08:45 -4,6 C -5,2 C 79 % 1016,3 hPa 0,0 mm 7,5 km/h (2 Bft) W-NW 292 -7,7 C 16,8 km/h (3 Bft)
17.01.2016 08:50 -4,6 C -5,1 C 79 % 1016,3 hPa 0,0 mm 7,5 km/h (2 Bft) W 270 -7,7 C 12,2 km/h (2 Bft)
17.01.2016 08:55 -4,6 C -5,1 C 79 % 1016,3 hPa 0,0 mm 7,5 km/h (2 Bft) W 270 -7,7 C 8,3 km/h (2 Bft)
17.01.2016 09:00 -4,6 C -4,8 C 79 % 1016,3 hPa 0,0 mm 6,2 km/h (2 Bft) W 270 -7,7 C 3,6 km/h (1 Bft)
17.01.2016 09:05 -4,6 C -4,7 C 79 % 1016,3 hPa 0,0 mm 5,4 km/h (1 Bft) W 270 -7,7 C 3,9 km/h (1 Bft)
17.01.2016 09:10 -4,6 C -4,8 C 79 % 1016,3 hPa 0,0 mm 5,2 km/h (1 Bft) W 270 -7,7 C 3,1 km/h (1 Bft)
17.01.2016 09:15 -4,6 C -4,7 C 79 % 1016,3 hPa 0,0 mm 4,9 km/h (1 Bft) W-SW 247 -7,7 C 4,1 km/h (1 Bft)
17.01.2016 09:20 -4,5 C -4,4 C 79 % 1016,2 hPa 0,0 mm 4,1 km/h (1 Bft) W 270 -7,6 C 6,7 km/h (2 Bft)
17.01.2016 09:25 -4,5 C -4,5 C 79 % 1016,2 hPa 0,0 mm 4,7 km/h (1 Bft) W-NW 292 -7,6 C 6,5 km/h (2 Bft)
17.01.2016 09:30 -4,5 C -4,6 C 79 % 1016,2 hPa 0,0 mm 5,4 km/h (1 Bft) W 270 -7,6 C 5,4 km/h (1 Bft)
17.01.2016 09:35 -4,4 C -4,3 C 80 % 1016,2 hPa 0,0 mm 4,7 km/h (1 Bft) NW 315 -7,3 C 7,5 km/h (2 Bft)
17.01.2016 09:40 -4,4 C -4,2 C 80 % 1016,1 hPa 0,0 mm 4,7 km/h (1 Bft) W 270 -7,3 C 14,2 km/h (3 Bft)
17.01.2016 09:45 -4,3 C -4,5 C 80 % 1016,1 hPa 0,0 mm 7,3 km/h (2 Bft) W 270 -7,2 C 6,2 km/h (2 Bft)
17.01.2016 09:50 -4,3 C -4,4 C 80 % 1016,1 hPa 0,0 mm 8,3 km/h (2 Bft) W 270 -7,2 C 6,7 km/h (2 Bft)
17.01.2016 09:55 -4,1 C -4,2 C 80 % 1016,1 hPa 0,0 mm 8,3 km/h (2 Bft) W 270 -7,0 C 8,8 km/h (2 Bft)
17.01.2016 10:00 -4,1 C -4,4 C 80 % 1016,3 hPa 0,0 mm 8,3 km/h (2 Bft) W-NW 292 -7,0 C 8,8 km/h (2 Bft)
17.01.2016 10:05 -4,3 C -4,2 C 79 % 1016,3 hPa 0,0 mm 7,0 km/h (2 Bft) W-SW 247 -7,4 C 13,7 km/h (3 Bft)
17.01.2016 10:10 -4,1 C -3,6 C 80 % 1016,3 hPa 0,0 mm 6,2 km/h (2 Bft) W-SW 247 -7,0 C 9,6 km/h (2 Bft)
17.01.2016 10:15 -4,1 C -3,9 C 80 % 1016,3 hPa 0,0 mm 7,3 km/h (2 Bft) W 270 -7,0 C 8,0 km/h (2 Bft)
17.01.2016 10:20 -4,0 C -3,7 C 80 % 1016,3 hPa 0,0 mm 8,8 km/h (2 Bft) W-SW 247 -6,9 C 11,4 km/h (2 Bft)
17.01.2016 10:25 -3,9 C -3,9 C 79 % 1016,3 hPa 0,0 mm 11,4 km/h (2 Bft) W 270 -7,0 C 15,5 km/h (3 Bft)
17.01.2016 10:30 -3,9 C -3,7 C 79 % 1016,3 hPa 0,0 mm 11,1 km/h (2 Bft) W-SW 247 -7,0 C 15,0 km/h (3 Bft)
17.01.2016 10:35 -3,7 C -3,9 C 79 % 1016,3 hPa 0,0 mm 11,1 km/h (2 Bft) W-SW 247 -6,8 C 14,0 km/h (3 Bft)
17.01.2016 10:40 -3,7 C -3,7 C 79 % 1016,5 hPa 0,0 mm 11,4 km/h (2 Bft) W-NW 292 -6,8 C 22,5 km/h (4 Bft)
17.01.2016 10:45 -3,7 C -3,8 C 79 % 1016,5 hPa 0,0 mm 12,2 km/h (2 Bft) W 270 -6,8 C 17,6 km/h (3 Bft)
17.01.2016 10:50 -3,7 C -3,9 C 79 % 1016,5 hPa 0,0 mm 12,7 km/h (3 Bft) W 270 -6,8 C 19,7 km/h (3 Bft)
17.01.2016 10:55 -3,9 C -4,2 C 79 % 1016,5 hPa 0,0 mm 11,4 km/h (2 Bft) W 270 -7,0 C 9,3 km/h (2 Bft)
17.01.2016 11:00 -3,9 C -4,2 C 79 % 1016,8 hPa 0,0 mm 10,9 km/h (2 Bft) W-SW 247 -7,0 C 15,0 km/h (3 Bft)
17.01.2016 11:05 -3,7 C -3,9 C 79 % 1016,8 hPa 0,0 mm 10,4 km/h (2 Bft) W 270 -6,8 C 8,5 km/h (2 Bft)
17.01.2016 11:10 -3,7 C -3,8 C 79 % 1016,8 hPa 0,0 mm 9,6 km/h (2 Bft) NW 315 -6,8 C 9,3 km/h (2 Bft)
17.01.2016 11:15 -3,7 C -4,0 C 78 % 1016,8 hPa 0,0 mm 9,3 km/h (2 Bft) W 270 -7,0 C 13,5 km/h (3 Bft)
17.01.2016 11:20 -3,7 C -4,1 C 78 % 1016,9 hPa 0,0 mm 10,4 km/h (2 Bft) W 270 -7,0 C 9,8 km/h (2 Bft)
17.01.2016 11:25 -3,6 C -3,5 C 78 % 1016,9 hPa 0,0 mm 10,1 km/h (2 Bft) W 270 -6,9 C 11,4 km/h (2 Bft)
17.01.2016 11:30 -3,4 C -2,7 C 78 % 1016,9 hPa 0,0 mm 8,5 km/h (2 Bft) W-NW 292 -6,7 C 9,1 km/h (2 Bft)
17.01.2016 11:35 -3,4 C -2,8 C 78 % 1016,9 hPa 0,0 mm 8,3 km/h (2 Bft) W-SW 247 -6,7 C 5,7 km/h (1 Bft)
17.01.2016 11:40 -3,5 C -3,0 C 78 % 1016,7 hPa 0,0 mm 9,1 km/h (2 Bft) W 270 -6,8 C 10,9 km/h (2 Bft)
17.01.2016 11:41 -3,4 C -2,8 C 78 % 1016,7 hPa 0,0 mm 9,3 km/h (2 Bft) W 270 -6,7 C 8,3 km/h (2 Bft)
17.01.2016 11:44 -3,4 C -2,8 C 78 % 1016,7 hPa 0,0 mm 9,3 km/h (2 Bft) W 270 -6,7 C 8,3 km/h (2 Bft)
17.01.2016 11:45 -3,4 C -2,8 C 78 % 1016,7 hPa 0,0 mm 9,3 km/h (2 Bft) W 270 -6,7 C 8,3 km/h (2 Bft)
17.01.2016 11:50 -3,4 C -2,6 C 77 % 1016,7 hPa 0,0 mm 8,8 km/h (2 Bft) W 270 -6,8 C 12,4 km/h (3 Bft)
17.01.2016 11:55 -3,2 C -2,1 C 77 % 1016,7 hPa 0,0 mm 8,3 km/h (2 Bft) NW 315 -6,6 C 8,3 km/h (2 Bft)
17.01.2016 12:00 -3,1 C -2,0 C 77 % 1016,7 hPa 0,0 mm 8,3 km/h (2 Bft) W 270 -6,5 C 7,3 km/h (2 Bft)
17.01.2016 12:05 -3,1 C -2,1 C 77 % 1016,7 hPa 0,0 mm 8,0 km/h (2 Bft) NW 315 -6,5 C 6,2 km/h (2 Bft)
17.01.2016 12:10 -3,1 C -2,2 C 77 % 1016,7 hPa 0,0 mm 7,3 km/h (2 Bft) NW 315 -6,5 C 8,0 km/h (2 Bft)
17.01.2016 12:15 -3,1 C -2,5 C 76 % 1016,7 hPa 0,0 mm 7,0 km/h (2 Bft) W 270 -6,7 C 8,8 km/h (2 Bft)
17.01.2016 12:20 -3,2 C -2,4 C 76 % 1016,7 hPa 0,0 mm 6,2 km/h (2 Bft) SW 225 -6,8 C 8,0 km/h (2 Bft)
17.01.2016 12:25 -3,4 C -2,9 C 76 % 1016,7 hPa 0,0 mm 6,5 km/h (2 Bft) W-SW 247 -7,0 C 7,8 km/h (2 Bft)
17.01.2016 12:30 -3,5 C -3,5 C 76 % 1016,7 hPa 0,0 mm 8,5 km/h (2 Bft) W 270 -7,1 C 7,8 km/h (2 Bft)
17.01.2016 12:35 -3,6 C -3,8 C 76 % 1016,7 hPa 0,0 mm 11,1 km/h (2 Bft) W-SW 247 -7,2 C 11,4 km/h (2 Bft)
17.01.2016 12:40 -3,6 C -3,6 C 76 % 1016,8 hPa 0,0 mm 12,2 km/h (2 Bft) W-NW 292 -7,2 C 14,0 km/h (3 Bft)
17.01.2016 12:45 -3,5 C -3,0 C 76 % 1016,8 hPa 0,0 mm 13,2 km/h (3 Bft) W 270 -7,1 C 14,0 km/h (3 Bft)
17.01.2016 12:50 -3,5 C -3,1 C 76 % 1016,8 hPa 0,0 mm 13,2 km/h (3 Bft) SW 225 -7,1 C 8,0 km/h (2 Bft)
17.01.2016 12:55 -3,5 C -3,3 C 76 % 1016,8 hPa 0,0 mm 11,1 km/h (2 Bft) W 270 -7,1 C 5,7 km/h (1 Bft)
17.01.2016 13:00 -3,6 C -3,3 C 76 % 1016,8 hPa 0,0 mm 9,6 km/h (2 Bft) NW 315 -7,2 C 17,6 km/h (3 Bft)
17.01.2016 13:05 -3,6 C -3,7 C 75 % 1016,8 hPa 0,0 mm 10,4 km/h (2 Bft) W 270 -7,4 C 13,2 km/h (3 Bft)
17.01.2016 13:10 -3,7 C -4,0 C 75 % 1016,8 hPa 0,0 mm 11,7 km/h (2 Bft) W 270 -7,5 C 14,5 km/h (3 Bft)
17.01.2016 13:15 -3,7 C -3,7 C 75 % 1016,8 hPa 0,0 mm 10,9 km/h (2 Bft) NW 315 -7,5 C 6,2 km/h (2 Bft)
17.01.2016 13:20 -3,6 C -3,3 C 75 % 1016,8 hPa 0,0 mm 9,6 km/h (2 Bft) W 270 -7,4 C 10,6 km/h (2 Bft)
17.01.2016 13:25 -3,5 C -2,7 C 75 % 1016,8 hPa 0,0 mm 6,7 km/h (2 Bft) W 270 -7,3 C 9,3 km/h (2 Bft)
17.01.2016 13:30 -3,6 C -2,9 C 75 % 1016,8 hPa 0,0 mm 6,7 km/h (2 Bft) W 270 -7,4 C 8,3 km/h (2 Bft)
17.01.2016 13:35 -3,6 C -3,0 C 75 % 1016,8 hPa 0,0 mm 6,7 km/h (2 Bft) W-SW 247 -7,4 C 5,4 km/h (1 Bft)
17.01.2016 13:40 -3,5 C -2,7 C 75 % 1016,7 hPa 0,0 mm 6,7 km/h (2 Bft) W-SW 247 -7,3 C 9,6 km/h (2 Bft)
17.01.2016 13:45 -3,5 C -2,7 C 75 % 1016,7 hPa 0,0 mm 7,5 km/h (2 Bft) W-NW 292 -7,3 C 8,3 km/h (2 Bft)
17.01.2016 13:50 -3,5 C -2,5 C 74 % 1016,7 hPa 0,0 mm 8,3 km/h (2 Bft) N-NW 337 -7,4 C 6,2 km/h (2 Bft)
17.01.2016 13:55 -3,4 C -2,7 C 74 % 1016,7 hPa 0,0 mm 8,3 km/h (2 Bft) S-SO 157 -7,4 C 7,3 km/h (2 Bft)
17.01.2016 14:00 -3,5 C -2,5 C 74 % 1016,7 hPa 0,0 mm 5,7 km/h (1 Bft) W-SW 247 -7,4 C 5,7 km/h (1 Bft)
17.01.2016 14:05 -3,5 C -2,1 C 74 % 1016,7 hPa 0,0 mm 4,7 km/h (1 Bft) W 270 -7,4 C 9,6 km/h (2 Bft)
17.01.2016 14:10 -3,4 C -2,3 C 74 % 1016,7 hPa 0,0 mm 5,4 km/h (1 Bft) W 270 -7,4 C 3,6 km/h (1 Bft)
17.01.2016 14:15 -3,6 C -4,1 C 74 % 1016,7 hPa 0,0 mm 9,8 km/h (2 Bft) N-NW 337 -7,5 C 24,1 km/h (4 Bft)
17.01.2016 14:20 -4,4 C -4,8 C 73 % 1017,0 hPa 0,0 mm 14,0 km/h (3 Bft) NW 315 -8,5 C 17,6 km/h (3 Bft)
17.01.2016 14:25 -4,8 C -5,3 C 74 % 1017,0 hPa 0,0 mm 14,8 km/h (3 Bft) NW 315 -8,7 C 38,1 km/h (5 Bft)
17.01.2016 14:30 -4,9 C -5,9 C 75 % 1017,0 hPa 0,0 mm 11,9 km/h (2 Bft) NW 315 -8,6 C 7,3 km/h (2 Bft)
17.01.2016 14:35 -4,9 C -5,7 C 75 % 1017,0 hPa 0,0 mm 10,6 km/h (2 Bft) NW 315 -8,6 C 5,2 km/h (1 Bft)
17.01.2016 14:40 -4,9 C -5,5 C 76 % 1017,1 hPa 0,0 mm 8,5 km/h (2 Bft) NW 315 -8,5 C 7,5 km/h (2 Bft)
17.01.2016 14:45 -5,0 C -5,3 C 76 % 1017,1 hPa 0,0 mm 6,5 km/h (2 Bft) W 270 -8,6 C 7,0 km/h (2 Bft)
17.01.2016 14:50 -5,0 C -5,6 C 76 % 1017,1 hPa 0,0 mm 7,5 km/h (2 Bft) W 270 -8,6 C 8,3 km/h (2 Bft)
17.01.2016 14:55 -5,0 C -5,5 C 77 % 1017,1 hPa 0,0 mm 7,8 km/h (2 Bft) W 270 -8,4 C 14,5 km/h (3 Bft)
17.01.2016 15:00 -5,0 C -5,4 C 77 % 1017,1 hPa 0,0 mm 7,5 km/h (2 Bft) W 270 -8,4 C 9,6 km/h (2 Bft)
17.01.2016 15:05 -5,0 C -5,6 C 77 % 1017,1 hPa 0,0 mm 10,1 km/h (2 Bft) W-NW 292 -8,4 C 9,3 km/h (2 Bft)
17.01.2016 15:10 -5,1 C -5,8 C 77 % 1017,1 hPa 0,0 mm 11,7 km/h (2 Bft) N-NW 337 -8,5 C 16,6 km/h (3 Bft)
17.01.2016 15:15 -5,1 C -5,9 C 77 % 1017,1 hPa 0,0 mm 11,9 km/h (2 Bft) W 270 -8,5 C 11,1 km/h (2 Bft)
17.01.2016 15:20 -5,1 C -5,7 C 77 % 1017,5 hPa 0,0 mm 10,4 km/h (2 Bft) N-NW 337 -8,5 C 10,4 km/h (2 Bft)
17.01.2016 15:25 -5,0 C -5,2 C 77 % 1017,5 hPa 0,0 mm 6,7 km/h (2 Bft) W 270 -8,4 C 7,8 km/h (2 Bft)
17.01.2016 15:30 -5,0 C -5,1 C 78 % 1017,5 hPa 0,0 mm 7,3 km/h (2 Bft) W 270 -8,2 C 9,3 km/h (2 Bft)
17.01.2016 15:35 -5,0 C -5,2 C 78 % 1017,5 hPa 0,0 mm 8,3 km/h (2 Bft) W-NW 292 -8,2 C 20,2 km/h (4 Bft)
17.01.2016 15:40 -5,0 C -5,2 C 78 % 1017,9 hPa 0,0 mm 9,1 km/h (2 Bft) W 270 -8,2 C 11,1 km/h (2 Bft)
17.01.2016 15:45 -5,0 C -5,4 C 78 % 1017,9 hPa 0,0 mm 9,8 km/h (2 Bft) SW 225 -8,2 C 9,3 km/h (2 Bft)
17.01.2016 15:50 -5,0 C -5,5 C 78 % 1017,9 hPa 0,0 mm 8,5 km/h (2 Bft) W 270 -8,2 C 6,2 km/h (2 Bft)
17.01.2016 15:55 -5,0 C -5,3 C 78 % 1017,9 hPa 0,0 mm 7,0 km/h (2 Bft) W 270 -8,2 C 4,4 km/h (1 Bft)
17.01.2016 16:00 -5,0 C -5,1 C 78 % 1017,8 hPa 0,0 mm 6,2 km/h (2 Bft) S-SW 202 -8,2 C 5,7 km/h (1 Bft)
17.01.2016 16:05 -5,0 C -5,2 C 78 % 1017,8 hPa 0,0 mm 5,7 km/h (1 Bft) W 270 -8,2 C 5,7 km/h (1 Bft)
17.01.2016 16:10 -5,1 C -5,4 C 78 % 1017,8 hPa 0,0 mm 6,0 km/h (2 Bft) W 270 -8,3 C 6,5 km/h (2 Bft)
17.01.2016 16:15 -5,1 C -5,6 C 78 % 1017,8 hPa 0,0 mm 6,2 km/h (2 Bft) NW 315 -8,3 C 3,9 km/h (1 Bft)
17.01.2016 16:20 -5,1 C -5,4 C 78 % 1017,8 hPa 0,0 mm 4,9 km/h (1 Bft) N-NO 22 -8,3 C 7,5 km/h (2 Bft)
17.01.2016 16:25 -5,1 C -5,4 C 78 % 1017,8 hPa 0,0 mm 4,1 km/h (1 Bft) W-SW 247 -8,3 C 6,2 km/h (2 Bft)
17.01.2016 16:30 -5,3 C -5,7 C 78 % 1017,8 hPa 0,0 mm 5,7 km/h (1 Bft) W 270 -8,5 C 14,5 km/h (3 Bft)
17.01.2016 16:35 -5,3 C -6,2 C 78 % 1017,8 hPa 0,0 mm 9,8 km/h (2 Bft) W-NW 292 -8,5 C 12,2 km/h (2 Bft)
17.01.2016 16:40 -5,3 C -6,4 C 78 % 1018,2 hPa 0,0 mm 11,9 km/h (2 Bft) W 270 -8,5 C 13,7 km/h (3 Bft)
17.01.2016 16:45 -5,4 C -6,5 C 78 % 1018,2 hPa 0,0 mm 11,1 km/h (2 Bft) W-NW 292 -8,6 C 8,8 km/h (2 Bft)
17.01.2016 16:50 -5,4 C -6,4 C 78 % 1018,2 hPa 0,0 mm 9,6 km/h (2 Bft) NW 315 -8,6 C 8,5 km/h (2 Bft)
17.01.2016 16:55 -5,4 C -6,2 C 78 % 1018,2 hPa 0,0 mm 6,2 km/h (2 Bft) W 270 -8,6 C 5,2 km/h (1 Bft)
17.01.2016 17:00 -5,6 C -6,3 C 78 % 1018,4 hPa 0,0 mm 6,5 km/h (2 Bft) W-NW 292 -8,8 C 9,6 km/h (2 Bft)
17.01.2016 17:05 -5,6 C -6,3 C 78 % 1018,4 hPa 0,0 mm 6,0 km/h (2 Bft) W 270 -8,8 C 3,9 km/h (1 Bft)
17.01.2016 17:10 -5,7 C -6,2 C 78 % 1018,4 hPa 0,0 mm 5,2 km/h (1 Bft) NW 315 -8,9 C 3,4 km/h (1 Bft)
17.01.2016 17:15 -5,7 C -6,1 C 78 % 1018,4 hPa 0,0 mm 3,9 km/h (1 Bft) W-SW 247 -8,9 C 6,5 km/h (2 Bft)
17.01.2016 17:20 -5,7 C -6,2 C 78 % 1018,5 hPa 0,0 mm 4,4 km/h (1 Bft) W 270 -8,9 C 12,9 km/h (3 Bft)
17.01.2016 17:25 -5,7 C -6,5 C 78 % 1018,5 hPa 0,0 mm 7,3 km/h (2 Bft) W-NW 292 -8,9 C 9,3 km/h (2 Bft)
17.01.2016 17:30 -5,6 C -6,5 C 78 % 1018,5 hPa 0,0 mm 7,5 km/h (2 Bft) N 360 -8,8 C 7,3 km/h (2 Bft)
17.01.2016 17:35 -5,7 C -6,5 C 78 % 1018,5 hPa 0,0 mm 6,5 km/h (2 Bft) W 270 -8,9 C 10,4 km/h (2 Bft)
17.01.2016 17:40 -5,9 C -6,7 C 78 % 1018,7 hPa 0,0 mm 6,7 km/h (2 Bft) W 270 -9,1 C 15,8 km/h (3 Bft)
17.01.2016 17:41 -6,3 C -7,3 C 78 % 1018,7 hPa 0,0 mm 7,8 km/h (2 Bft) W-NW 292 -9,5 C 10,1 km/h (2 Bft)
17.01.2016 17:45 -6,3 C -7,3 C 78 % 1018,7 hPa 0,0 mm 7,8 km/h (2 Bft) W-NW 292 -9,5 C 10,1 km/h (2 Bft)
17.01.2016 17:50 -6,4 C -7,5 C 78 % 1018,7 hPa 0,0 mm 8,0 km/h (2 Bft) W 270 -9,6 C 6,5 km/h (2 Bft)
17.01.2016 17:55 -6,4 C -7,5 C 78 % 1018,7 hPa 0,0 mm 8,0 km/h (2 Bft) W-SW 247 -9,6 C 8,5 km/h (2 Bft)
17.01.2016 18:00 -6,5 C -7,6 C 78 % 1018,9 hPa 0,0 mm 7,5 km/h (2 Bft) W 270 -9,7 C 6,7 km/h (2 Bft)
17.01.2016 18:05 -6,4 C -7,5 C 79 % 1018,9 hPa 0,0 mm 7,3 km/h (2 Bft) S-SW 202 -9,4 C 6,2 km/h (2 Bft)
17.01.2016 18:10 -6,3 C -7,5 C 79 % 1018,9 hPa 0,0 mm 8,5 km/h (2 Bft) W 270 -9,3 C 15,5 km/h (3 Bft)
17.01.2016 18:15 -6,2 C -7,4 C 79 % 1018,9 hPa 0,0 mm 8,5 km/h (2 Bft) W-SW 247 -9,2 C 13,5 km/h (3 Bft)
17.01.2016 18:20 -6,2 C -7,3 C 79 % 1019,4 hPa 0,0 mm 8,3 km/h (2 Bft) W 270 -9,2 C 7,8 km/h (2 Bft)
17.01.2016 18:25 -6,2 C -7,2 C 79 % 1019,4 hPa 0,0 mm 8,0 km/h (2 Bft) W-SW 247 -9,2 C 11,4 km/h (2 Bft)
17.01.2016 18:30 -6,2 C -7,2 C 79 % 1019,4 hPa 0,0 mm 8,0 km/h (2 Bft) W-SW 247 -9,2 C 6,5 km/h (2 Bft)
17.01.2016 18:35 -6,2 C -7,0 C 78 % 1019,4 hPa 0,0 mm 7,3 km/h (2 Bft) W 270 -9,4 C 9,8 km/h (2 Bft)
17.01.2016 18:40 -6,0 C -6,9 C 80 % 1019,5 hPa 0,0 mm 6,7 km/h (2 Bft) W-NW 292 -8,9 C 10,6 km/h (2 Bft)
17.01.2016 18:45 -6,0 C -6,9 C 78 % 1019,5 hPa 0,0 mm 7,5 km/h (2 Bft) W 270 -9,2 C 9,8 km/h (2 Bft)
17.01.2016 18:50 -6,0 C -6,9 C 78 % 1019,5 hPa 0,0 mm 8,0 km/h (2 Bft) W-SW 247 -9,2 C 15,8 km/h (3 Bft)
17.01.2016 18:55 -6,0 C -6,8 C 78 % 1019,5 hPa 0,0 mm 7,3 km/h (2 Bft) W 270 -9,2 C 5,2 km/h (1 Bft)
17.01.2016 19:00 -6,0 C -6,8 C 78 % 1019,7 hPa 0,0 mm 7,8 km/h (2 Bft) W-SW 247 -9,2 C 10,4 km/h (2 Bft)
17.01.2016 19:05 -6,0 C -6,7 C 78 % 1019,7 hPa 0,0 mm 7,0 km/h (2 Bft) W 270 -9,2 C 7,3 km/h (2 Bft)
17.01.2016 19:10 -6,0 C -6,9 C 78 % 1019,7 hPa 0,0 mm 8,3 km/h (2 Bft) NW 315 -9,2 C 9,1 km/h (2 Bft)
17.01.2016 19:15 -6,0 C -7,0 C 78 % 1019,7 hPa 0,0 mm 8,8 km/h (2 Bft) W 270 -9,2 C 12,2 km/h (2 Bft)
17.01.2016 19:20 -6,0 C -6,8 C 78 % 1019,7 hPa 0,0 mm 7,8 km/h (2 Bft) W-NW 292 -9,2 C 11,9 km/h (2 Bft)
17.01.2016 19:25 -6,0 C -6,9 C 80 % 1019,7 hPa 0,0 mm 7,0 km/h (2 Bft) W-NW 292 -8,9 C 10,1 km/h (2 Bft)
17.01.2016 19:30 -6,2 C -6,9 C 79 % 1019,7 hPa 0,0 mm 7,3 km/h (2 Bft) W-SW 247 -9,2 C 9,8 km/h (2 Bft)
17.01.2016 19:35 -6,2 C -7,0 C 79 % 1019,7 hPa 0,0 mm 7,8 km/h (2 Bft) W-SW 247 -9,2 C 9,3 km/h (2 Bft)
17.01.2016 19:40 -6,2 C -7,0 C 79 % 1019,9 hPa 0,0 mm 7,3 km/h (2 Bft) W 270 -9,2 C 6,0 km/h (2 Bft)
17.01.2016 19:45 -6,2 C -7,0 C 79 % 1019,9 hPa 0,0 mm 7,3 km/h (2 Bft) W-NW 292 -9,2 C 3,4 km/h (1 Bft)
17.01.2016 19:50 -6,2 C -7,0 C 79 % 1019,9 hPa 0,0 mm 7,0 km/h (2 Bft) W-SW 247 -9,2 C 10,1 km/h (2 Bft)
17.01.2016 19:55 -6,2 C -6,7 C 79 % 1019,9 hPa 0,0 mm 5,2 km/h (1 Bft) W-SW 247 -9,2 C 3,4 km/h (1 Bft)
17.01.2016 20:00 -6,3 C -6,7 C 79 % 1020,0 hPa 0,0 mm 5,2 km/h (1 Bft) W-NW 292 -9,3 C 3,6 km/h (1 Bft)
17.01.2016 20:01 -6,3 C -6,6 C 79 % 1024,5 hPa 0,0 mm 4,7 km/h (1 Bft) W 270 -9,3 C 6,2 km/h (2 Bft)
17.01.2016 20:03 -6,3 C -6,6 C 79 % 1024,5 hPa 0,0 mm 4,7 km/h (1 Bft) W 270 -9,3 C 6,2 km/h (2 Bft)
17.01.2016 20:05 -6,3 C -6,6 C 79 % 1024,5 hPa 0,0 mm 4,7 km/h (1 Bft) W 270 -9,3 C 6,2 km/h (2 Bft)
17.01.2016 20:06 -6,3 C -6,7 C 79 % 1026,2 hPa 0,0 mm 5,4 km/h (1 Bft) W-NW 292 -9,3 C 4,9 km/h (1 Bft)
17.01.2016 20:08 -6,3 C -6,7 C 79 % 1026,2 hPa 0,0 mm 5,4 km/h (1 Bft) W-NW 292 -9,3 C 4,9 km/h (1 Bft)
17.01.2016 20:10 -6,3 C -6,7 C 79 % 1026,2 hPa 0,0 mm 5,4 km/h (1 Bft) W-NW 292 -9,3 C 4,9 km/h (1 Bft)
17.01.2016 20:15 -6,3 C -6,9 C 79 % 1026,2 hPa 0,0 mm 6,7 km/h (2 Bft) S-SW 202 -9,3 C 10,4 km/h (2 Bft)
17.01.2016 20:20 -6,3 C -6,7 C 79 % 1026,3 hPa 0,0 mm 5,4 km/h (1 Bft) W-SW 247 -9,3 C 4,4 km/h (1 Bft)
17.01.2016 20:25 -6,3 C -6,7 C 79 % 1026,3 hPa 0,0 mm 4,7 km/h (1 Bft) NW 315 -9,3 C 6,7 km/h (2 Bft)
17.01.2016 20:30 -6,3 C -6,8 C 79 % 1026,3 hPa 0,0 mm 5,2 km/h (1 Bft) W-SW 247 -9,3 C 5,4 km/h (1 Bft)
17.01.2016 20:35 -6,3 C -6,9 C 79 % 1026,3 hPa 0,0 mm 6,0 km/h (2 Bft) W 270 -9,3 C 10,1 km/h (2 Bft)
17.01.2016 20:40 -6,3 C -6,9 C 79 % 1026,4 hPa 0,0 mm 6,2 km/h (2 Bft) W-NW 292 -9,3 C 7,5 km/h (2 Bft)
17.01.2016 20:45 -6,3 C -6,9 C 79 % 1026,4 hPa 0,0 mm 5,7 km/h (1 Bft) W 270 -9,3 C 5,2 km/h (1 Bft)
17.01.2016 20:50 -6,3 C -6,9 C 79 % 1026,4 hPa 0,0 mm 5,7 km/h (1 Bft) W-SW 247 -9,3 C 8,5 km/h (2 Bft)
17.01.2016 20:55 -6,3 C -6,8 C 79 % 1026,4 hPa 0,0 mm 5,2 km/h (1 Bft) W-SW 247 -9,3 C 5,4 km/h (1 Bft)
17.01.2016 21:00 -6,3 C -6,8 C 79 % 1026,4 hPa 0,0 mm 4,9 km/h (1 Bft) NW 315 -9,3 C 6,2 km/h (2 Bft)
17.01.2016 21:05 -6,3 C -6,9 C 79 % 1026,4 hPa 0,0 mm 6,2 km/h (2 Bft) W-NW 292 -9,3 C 5,7 km/h (1 Bft)
17.01.2016 21:10 -6,3 C -6,9 C 79 % 1026,4 hPa 0,0 mm 6,0 km/h (2 Bft) N 360 -9,3 C 8,3 km/h (2 Bft)
17.01.2016 21:15 -6,3 C -6,8 C 79 % 1026,4 hPa 0,0 mm 5,2 km/h (1 Bft) W-SW 247 -9,3 C 7,8 km/h (2 Bft)
17.01.2016 21:20 -6,3 C -6,8 C 79 % 1026,5 hPa 0,0 mm 5,2 km/h (1 Bft) W-SW 247 -9,3 C 11,4 km/h (2 Bft)
17.01.2016 21:21 -6,3 C -6,7 C 79 % 1026,5 hPa 0,0 mm 4,9 km/h (1 Bft) W-SW 247 -9,3 C 3,9 km/h (1 Bft)
17.01.2016 21:25 -6,3 C -6,7 C 79 % 1026,5 hPa 0,0 mm 4,9 km/h (1 Bft) W-SW 247 -9,3 C 3,9 km/h (1 Bft)
17.01.2016 21:30 -6,3 C -6,8 C 79 % 1026,5 hPa 0,0 mm 5,2 km/h (1 Bft) W 270 -9,3 C 9,3 km/h (2 Bft)
17.01.2016 21:35 -6,3 C -6,9 C 79 % 1026,5 hPa 0,0 mm 6,0 km/h (2 Bft) W-NW 292 -9,3 C 4,9 km/h (1 Bft)
17.01.2016 21:40 -6,3 C -6,9 C 79 % 1026,6 hPa 0,0 mm 6,0 km/h (2 Bft) W-NW 292 -9,3 C 6,5 km/h (2 Bft)
17.01.2016 21:45 -6,3 C -6,9 C 79 % 1026,6 hPa 0,0 mm 6,2 km/h (2 Bft) W-NW 292 -9,3 C 9,8 km/h (2 Bft)
17.01.2016 21:50 -6,3 C -7,1 C 79 % 1026,6 hPa 0,0 mm 7,0 km/h (2 Bft) W 270 -9,3 C 14,5 km/h (3 Bft)
17.01.2016 21:55 -6,3 C -7,1 C 82 % 1026,6 hPa 0,0 mm 6,7 km/h (2 Bft) W-SW 247 -8,9 C 7,8 km/h (2 Bft)
17.01.2016 22:00 -6,5 C -7,1 C 79 % 1026,7 hPa 0,0 mm 6,2 km/h (2 Bft) W-NW 292 -9,5 C 4,7 km/h (1 Bft)
17.01.2016 22:05 -6,5 C -7,0 C 79 % 1026,7 hPa 0,0 mm 4,7 km/h (1 Bft) W 270 -9,5 C 2,8 km/h (1 Bft)
17.01.2016 22:10 -6,5 C -6,9 C 82 % 1026,7 hPa 0,0 mm 3,9 km/h (1 Bft) W-NW 292 -9,0 C 5,4 km/h (1 Bft)
17.01.2016 22:15 -6,6 C -6,7 C 79 % 1026,7 hPa 0,0 mm 2,6 km/h (1 Bft) W 270 -9,6 C 0,0 km/h (0 Bft)
17.01.2016 22:20 -6,6 C -6,7 C 79 % 1026,7 hPa 0,0 mm 2,8 km/h (1 Bft) W 270 -9,6 C 5,4 km/h (1 Bft)
17.01.2016 22:25 -6,5 C -6,7 C 81 % 1026,7 hPa 0,0 mm 2,8 km/h (1 Bft) W-SW 247 -9,2 C 4,7 km/h (1 Bft)
17.01.2016 22:30 -6,5 C -6,8 C 81 % 1026,7 hPa 0,0 mm 3,6 km/h (1 Bft) W-SW 247 -9,2 C 5,4 km/h (1 Bft)
17.01.2016 22:35 -6,6 C -6,8 C 79 % 1026,7 hPa 0,0 mm 3,4 km/h (1 Bft) NW 315 -9,6 C 8,3 km/h (2 Bft)
17.01.2016 22:40 -6,6 C -6,8 C 81 % 1026,7 hPa 0,0 mm 2,6 km/h (1 Bft) W-SW 247 -9,3 C 3,4 km/h (1 Bft)
17.01.2016 22:45 -6,6 C -6,8 C 81 % 1026,7 hPa 0,0 mm 3,1 km/h (1 Bft) W-SW 247 -9,3 C 0,0 km/h (0 Bft)
17.01.2016 22:50 -6,6 C -6,8 C 81 % 1026,7 hPa 0,0 mm 2,3 km/h (1 Bft) W 270 -9,3 C 0,0 km/h (0 Bft)
17.01.2016 22:55 -6,6 C -6,8 C 81 % 1026,7 hPa 0,0 mm 2,8 km/h (1 Bft) W-SW 247 -9,3 C 10,6 km/h (2 Bft)
17.01.2016 23:00 -6,7 C -7,1 C 81 % 1026,7 hPa 0,0 mm 3,9 km/h (1 Bft) S-SW 202 -9,4 C 5,2 km/h (1 Bft)
17.01.2016 23:05 -6,7 C -7,4 C 81 % 1026,7 hPa 0,0 mm 5,2 km/h (1 Bft) NW 315 -9,4 C 8,3 km/h (2 Bft)
17.01.2016 23:10 -6,7 C -7,4 C 81 % 1026,7 hPa 0,0 mm 5,4 km/h (1 Bft) W 270 -9,4 C 4,4 km/h (1 Bft)
17.01.2016 23:15 -6,9 C -7,5 C 79 % 1026,7 hPa 0,0 mm 5,4 km/h (1 Bft) W-SW 247 -9,9 C 8,3 km/h (2 Bft)
17.01.2016 23:20 -7,0 C -7,6 C 81 % 1026,7 hPa 0,0 mm 4,7 km/h (1 Bft) W-SW 247 -9,7 C 0,0 km/h (0 Bft)
17.01.2016 23:25 -7,1 C -7,3 C 81 % 1026,7 hPa 0,0 mm 3,1 km/h (1 Bft) W-NW 292 -9,8 C 0,0 km/h (0 Bft)
17.01.2016 23:30 -7,3 C -7,5 C 81 % 1026,7 hPa 0,0 mm 1,6 km/h (1 Bft) W-SW 247 -10,0 C 5,4 km/h (1 Bft)
17.01.2016 23:35 -7,4 C -7,6 C 80 % 1026,7 hPa 0,0 mm 1,3 km/h (1 Bft) S 180 -10,2 C 4,1 km/h (1 Bft)
17.01.2016 23:40 -7,3 C -7,6 C 81 % 1026,7 hPa 0,0 mm 2,1 km/h (1 Bft) SW 225 -10,0 C 0,0 km/h (0 Bft)
17.01.2016 23:45 -7,5 C -7,9 C 80 % 1026,7 hPa 0,0 mm 3,6 km/h (1 Bft) W-SW 247 -10,3 C 6,0 km/h (2 Bft)
17.01.2016 23:50 -7,7 C -8,1 C 80 % 1026,7 hPa 0,0 mm 3,6 km/h (1 Bft) S-SW 202 -10,5 C 3,9 km/h (1 Bft)
17.01.2016 23:55 -8,0 C -8,4 C 80 % 1026,7 hPa 0,0 mm 3,6 km/h (1 Bft) S 180 -10,8 C 4,7 km/h (1 Bft)
_ Min-Zeit 23:55 23:55 14:20 09:55 - 23:35 - - 23:55 23:40
Minimum _ -8,0 C -8,4 C 73 % 1016,1 hPa - 1,3 km/h (1 Bft) - - -10,8 C 0,0 km/h (0 Bft)
_ Max-Zeit 12:15 12:00 00:00 23:55 23:55 00:00 - - 00:00 14:25
Maximum _ -3,1 C -2,0 C 83 % 1026,7 hPa 0,0 mm 18,1 km/h
W-NW (3 Bft)
- - -6,4 C 38,1 km/h
NW (5 Bft)
Durchschnitt _ -5,0 C -5,5 C 79 % 1018,9 hPa #0,0 mm 7,9 km/h (2 Bft) W - -8,1 C 9,9 km/h (2 Bft)